Overview Statistics Trail Chart Weather Telemetry Raw packets
 

This is the latest recevied weather packets stored in our database for station/object I0UVN-10. If no packets are shown the sender has not sent any weather packets the latest 10 day(s).

<< 14 15 16 17 18 19 20 >>
Time Temp. Humidity Pressure Rain* Wind** Luminosity Snow
1788213646 28.89° C 55% 1020 hPa - - - -
1788212446 28.89° C 57% 1019.9 hPa - - - -
1788211246 28.89° C 56% 1019.8 hPa - - - -
1788210046 29.44° C 55% 1019.7 hPa - - - -
1788208887 29.44° C 55% 1019.5 hPa - - - -
1788208846 29.44° C 55% 1019.5 hPa - - - -
1788207646 29.44° C 55% 1019.4 hPa - - - -
1788206445 28.89° C 56% 1019.3 hPa - - - -
1788205513 28.89° C 56% 1019.3 hPa - - - -
1788205245 28.89° C 56% 1019.3 hPa - - - -
1788204045 28.89° C 56% 1019.1 hPa - - - -
1788202845 28.89° C 56% 1019.2 hPa - - - -
1788201640 28.89° C 55% 1019 hPa - - - -
1788200440 29.44° C 54% 1018.6 hPa - - - -
1788199240 29.44° C 54% 1018.5 hPa - - - -
1788198040 29.44° C 54% 1018.5 hPa - - - -
1788196840 29.44° C 53% 1018.4 hPa - - - -
1788195635 30° C 49% 1018.6 hPa - - - -
1788194469 30° C 47% 1018.6 hPa - - - -
1788194440 30° C 47% 1018.6 hPa - - - -
1788193228 30° C 46% 1018.8 hPa - - - -
1788192028 30° C 46% 1018.8 hPa - - - -
1788190828 30.56° C 45% 1019 hPa - - - -
1788189626 30.56° C 45% 1019 hPa - - - -
1788188424 30.56° C 45% 1019.1 hPa - - - -

* Rain since midnight (hover to see other rain measurements)
** Current wind speed in m/s (hover to see current wind gust speed)